Theta_e
294 293 294 294 294 294 294 295 295 295 296 298 298 299 299 300 300 295 291 295 291 285 286 290 291 288 289 287 283 286 287 287 285 281 280 280 279 282 281 282 282 281 280 279 280 277 275 287 286 282 286 282 286 284
293 293 293 293 293 294 294 295 295 294 295 296 297 298 299 299 299 296 289 295 294 289 287 293 294 294 293 293 289 289 287 286 287 284 283 284 281 282 281 278 285 280 284 281 282 282 282 285 284 284 284 283 283 284
293 293 293 293 293 293 294 294 294 294 294 295 296 298 298 298 299 296 290 293 292 287 286 287 286 293 295 295 297 287 289 290 288 291 287 286 282 285 279 279 282 284 284 282 282 282 282 284 283 284 284 283 282 283
292 293 293 293 293 293 294 294 294 296 297 296 296 297 298 298 299 297 291 292 290 288 281 284 294 291 296 296 294 295 292 293 292 292 288 286 283 286 283 284 282 284 284 282 280 281 282 284 284 284 281 282 282 283
292 292 292 292 293 294 294 294 295 294 295 297 298 297 297 298 298 297 293 294 294 287 283 283 290 293 295 294 293 294 293 291 290 287 286 284 287 286 285 284 283 285 283 283 283 286 285 284 285 282 280 280 281 280
292 292 292 293 294 295 295 295 296 296 295 297 297 296 296 297 298 292 286 293 296 296 286 282 290 290 293 294 293 292 293 291 290 287 286 286 289 286 283 282 285 286 286 286 285 286 284 284 283 283 280 279 280 280
292 293 294 294 294 294 294 295 295 296 295 297 298 298 298 298 294 287 287 292 297 295 285 282 283 288 289 292 292 290 291 288 288 285 284 286 287 289 284 282 283 283 284 284 284 284 280 282 280 281 280 280 281 279
292 293 293 293 294 293 294 294 295 296 296 298 299 299 299 299 296 290 295 297 297 289 286 282 282 284 289 286 286 289 286 286 285 285 285 285 286 287 283 283 282 282 283 283 284 284 284 283 282 280 280 279 278 277
293 294 296 298 297 296 295 294 294 296 297 299 299 299 296 292 287 291 299 299 296 290 284 282 280 279 287 285 286 285 285 282 285 283 284 284 282 281 283 283 281 282 283 282 282 282 282 281 280 279 279 279 278 277
298 298 298 299 299 298 295 295 296 297 299 298 294 287 284 291 299 298 292 286 287 287 286 281 282 282 285 283 283 284 283 282 281 283 284 283 282 283 284 285 284 284 283 283 280 279 280 279 279 279 279 280 279 278
298 298 297 297 296 297 297 297 298 299 297 291 287 285 292 297 290 286 283 282 282 281 283 283 283 283 286 283 282 283 281 281 278 281 281 279 280 282 284 283 285 284 284 284 284 284 283 282 280 280 279 280 279 279
297 298 298 298 298 299 299 298 297 293 291 290 292 293 289 286 284 280 277 280 280 280 282 282 283 285 285 286 284 283 280 281 277 281 279 276 279 282 283 283 284 284 284 283 284 283 283 282 281 280 280 279 279 278
297 297 297 297 297 298 298 298 298 297 296 292 288 283 283 281 273 273 270 276 277 282 282 283 282 283 284 284 281 281 277 276 281 276 276 278 281 282 283 283 282 283 283 282 282 283 282 282 282 281 280 279 277 275
296 297 298 298 298 297 298 298 297 294 291 284 282 276 276 273 277 277 279 279 283 281 283 283 280 282 281 279 277 277 277 277 274 273 274 278 281 282 283 283 283 281 280 280 280 279 278 278 277 278 278 277 275 273
296 296 296 297 298 298 298 297 296 291 286 282 281 274 277 281 283 283 284 284 283 283 282 282 281 281 278 276 277 276 274 272 273 273 277 281 282 281 280 280 277 276 274 275 276 275 275 276 276 276 276 276 275 273
295 293 292 297 297 298 297 293 291 290 285 283 281 279 280 280 282 283 283 282 284 282 283 283 279 277 276 276 275 272 273 270 273 277 282 284 283 283 280 278 275 274 275 274 275 276 275 274 275 275 275 275 274 274
293 286 294 297 297 296 295 288 287 284 282 280 278 279 277 279 280 281 282 282 284 283 279 280 275 276 278 275 274 276 274 277 280 282 283 284 284 283 279 274 273 274 275 276 275 276 275 275 275 275 273 274 274 274
286 288 295 297 293 291 288 286 283 282 279 278 277 278 279 281 281 280 281 282 283 283 282 280 280 275 272 273 275 279 279 280 281 281 281 282 283 282 281 278 276 278 277 275 276 275 275 275 275 275 275 274 274 273
291 292 296 296 291 285 283 283 284 278 279 279 280 280 280 281 282 282 281 283 284 284 283 281 277 277 278 280 280 280 280 281 280 279 279 280 280 280 280 280 279 278 277 277 277 277 277 278 277 276 275 274 273 274
294 294 294 294 291 283 281 281 284 280 276 278 278 279 280 280 281 280 282 283 283 282 280 278 278 281 281 281 283 282 282 281 280 278 278 278 279 278 278 278 278 278 277 277 277 277 277 276 276 275 275 275 274 273
290 290 291 289 284 284 281 280 279 280 279 277 278 279 278 280 279 278 279 282 280 280 278 281 281 282 282 283 284 283 282 283 281 281 279 277 278 279 278 278 278 278 277 277 276 276 276 276 275 276 275 275 275 274
287 292 285 285 282 282 281 281 280 280 279 279 279 280 276 274 277 277 280 278 278 280 281 281 283 283 283 282 282 283 282 282 280 278 278 278 277 277 277 277 277 276 276 276 277 276 276 276 276 275 274 274 274 274
288 287 282 282 277 275 276 281 278 279 273 274 278 275 274 273 276 280 274 278 279 282 283 284 284 285 283 283 283 283 283 282 280 279 277 277 277 276 277 276 276 275 275 275 276 276 275 275 274 273 273 273 273 271
285 280 273 272 274 269 274 273 279 279 277 276 275 272 274 273 278 274 274 277 278 279 282 283 283 282 283 283 281 281 282 282 280 279 279 277 276 276 276 276 276 276 276 276 276 275 274 274 272 273 273 272 271 271
273 270 270 265 271 269 267 269 270 272 269 272 271 271 276 277 270 269 273 278 280 281 281 282 282 282 281 281 281 282 282 282 280 280 280 279 278 277 276 277 277 276 276 274 274 274 273 273 273 272 272 272 271 271
264 267 268 267 266 269 270 266 265 267 269 268 271 277 276 269 267 269 275 277 280 281 281 281 281 280 280 281 280 281 281 283 282 281 280 281 280 278 277 275 275 275 276 276 274 273 272 272 272 272 272 271 271 271
263 265 274 278 277 276 269 269 274 269 266 268 270 269 267 264 266 272 279 280 280 281 281 282 281 281 281 280 279 279 279 280 280 280 278 280 280 281 280 277 275 278 276 275 275 274 273 272 273 273 272 273 272 271
269 270 266 267 268 271 265 264 264 265 268 273 271 266 266 268 271 277 279 280 281 280 280 279 280 281 281 279 277 277 277 278 277 276 277 278 276 276 277 277 276 274 277 276 276 275 274 274 274 273 272 272 271 271
268 269 270 263 263 266 272 270 271 276 279 274 267 267 271 278 280 279 280 280 281 280 279 278 278 279 279 279 279 279 279 279 277 274 274 274 275 278 274 274 275 275 276 276 275 276 275 275 274 274 273 272 271 270
268 269 266 261 262 266 270 276 277 277 279 279 279 278 278 278 279 280 280 280 279 279 280 280 279 279 278 278 277 278 279 279 279 276 274 273 275 274 277 278 277 277 277 277 277 277 277 275 273 271 269 268 268 266
271 266 265 265 264 265 272 276 279 278 278 278 278 277 278 278 278 277 278 279 280 280 279 279 279 279 279 278 278 277 276 279 279 278 275 272 271 276 279 280 279 279 278 277 276 274 273 272 271 270 268 267 266 266
265 263 265 265 266 270 277 276 276 275 268 271 275 273 274 275 275 277 275 276 277 278 280 280 279 279 281 281 281 281 279 277 274 277 275 272 272 277 277 276 274 275 274 274 273 272 272 271 269 269 268 267 266 266
266 265 264 263 266 273 274 272 267 267 269 266 265 265 273 276 273 271 267 267 275 279 280 280 279 279 280 281 281 281 278 278 271 273 271 270 268 275 276 274 273 272 271 271 272 271 270 269 268 268 267 266 265 264
Wind_Speed
7 4 6 5 4 3 3 4 3 4 6 8 9 12 15 17 21 7 2 4 5 3 3 3 2 3 3 4 5 4 3 2 4 8 7 5 6 6 4 3 7 9 7 4 3 6 11 9 8 8 1 2 7 12
6 6 5 5 6 6 5 7 6 4 6 7 10 12 14 15 18 9 3 3 3 1 1 1 3 3 2 2 5 6 2 4 4 4 4 3 4 4 3 5 4 7 6 7 9 5 1 1 3 2 3 5 7 12
8 8 7 7 8 9 10 9 7 9 14 15 14 14 14 14 17 9 3 4 3 2 4 3 9 10 6 8 3 4 3 4 5 4 2 2 5 5 7 7 4 3 2 3 3 4 4 4 1 3 2 5 9 12
10 11 11 11 11 10 10 12 10 10 12 24 23 19 17 16 15 12 3 3 4 3 3 5 2 5 6 11 11 8 1 2 1 4 2 3 4 4 4 1 4 2 7 6 2 1 0 7 8 8 8 10 12 14
12 13 14 14 14 14 14 13 9 4 9 11 25 25 22 18 17 8 2 3 4 5 2 3 2 4 5 10 13 12 11 7 2 3 4 4 2 3 1 1 3 5 6 6 5 7 3 1 13 13 13 12 14 17
15 17 17 18 17 14 12 12 9 9 7 8 22 25 23 21 17 4 2 4 6 2 2 4 0 4 5 11 13 14 11 7 3 3 2 2 4 3 4 3 0 1 1 1 1 6 4 9 13 10 14 13 13 14
19 19 20 20 19 16 15 13 11 8 6 8 19 22 22 21 9 5 4 2 15 6 2 4 2 2 5 6 3 3 4 3 3 2 3 3 2 2 2 3 3 2 3 8 13 11 8 9 7 11 15 14 15 15
24 27 30 30 29 27 26 22 17 13 12 11 16 20 20 21 9 7 1 3 12 5 3 4 2 1 2 3 4 3 4 3 4 2 1 2 2 1 3 2 4 5 8 7 2 1 6 12 15 14 16 16 17 15
14 21 13 13 23 25 29 25 22 16 12 17 20 21 11 2 3 3 8 13 1 2 3 2 1 1 2 3 3 2 2 2 1 2 1 1 1 3 1 7 9 9 4 7 8 10 14 15 16 16 16 16 16 15
17 18 16 16 20 24 27 24 23 20 22 23 6 2 2 3 18 12 4 4 5 3 2 3 1 2 2 3 3 3 1 2 2 1 1 0 2 1 3 6 8 8 10 12 13 8 10 12 14 15 15 13 14 16
25 26 26 28 29 26 25 27 23 25 17 2 3 2 4 10 3 2 2 2 2 2 3 1 2 3 0 2 2 1 2 0 2 2 2 1 1 2 3 7 8 7 9 3 0 6 11 14 15 14 14 14 14 16
24 25 27 29 27 26 25 25 19 5 3 5 8 6 3 1 1 2 0 0 2 2 1 3 2 1 1 0 3 1 2 0 2 1 1 1 0 3 6 9 5 7 6 3 4 10 12 13 13 13 13 13 13 12
21 22 22 18 17 18 16 14 9 9 10 2 3 5 2 1 4 5 3 1 1 2 3 2 2 1 1 4 3 2 3 1 1 2 1 0 2 4 6 6 6 6 7 7 9 9 12 13 12 12 12 10 13 12
18 19 15 12 10 12 10 7 5 5 2 4 3 4 2 3 2 1 1 1 0 1 3 2 3 2 1 4 1 4 1 0 2 1 2 0 3 6 5 5 7 5 6 8 8 9 10 11 10 10 11 12 12 12
17 17 15 12 14 7 5 8 10 4 3 4 4 4 3 1 1 1 1 1 1 1 1 3 3 2 3 4 2 3 2 1 2 2 1 1 4 5 5 4 6 6 5 6 6 7 8 10 10 9 9 10 11 12
11 10 10 12 8 7 12 9 5 3 4 4 5 2 2 1 2 2 3 2 1 0 1 3 3 3 3 3 2 1 4 3 1 2 1 2 5 5 4 4 4 5 5 6 5 7 8 9 9 9 10 10 11 13
10 4 11 7 3 5 7 4 4 5 4 4 2 1 0 0 1 1 1 1 1 1 2 2 4 1 2 2 2 2 2 1 1 1 1 2 4 6 6 6 5 5 7 7 6 7 6 8 10 10 11 8 10 10
3 5 10 9 2 3 3 4 4 4 5 2 3 3 1 1 1 2 3 2 0 2 2 2 3 3 2 3 2 2 2 2 3 3 3 3 4 6 6 8 6 7 7 6 7 7 8 9 9 7 10 11 10 10
3 5 11 11 5 4 4 5 4 4 2 1 1 2 1 1 0 2 2 2 2 2 4 2 4 2 2 1 1 2 3 2 3 2 2 4 4 5 6 7 7 6 7 7 7 6 6 7 6 7 8 9 8 9
6 11 14 11 6 4 4 3 2 4 2 1 1 2 1 1 3 2 3 4 2 2 4 3 2 1 1 0 0 0 2 4 4 3 2 3 3 5 5 5 5 6 7 7 6 7 6 6 5 7 8 8 9 9
7 6 9 6 4 5 4 2 3 2 1 2 1 1 1 3 3 4 3 3 3 2 2 1 2 1 1 1 2 3 3 3 2 2 3 3 3 4 5 5 6 5 5 6 6 6 5 5 6 6 7 7 7 8
3 7 3 5 4 4 4 2 2 1 2 0 2 2 2 2 2 2 2 4 2 1 2 2 3 3 2 4 3 4 4 6 5 4 5 7 4 4 4 5 5 5 5 5 5 6 6 6 6 7 7 8 9 9
5 4 4 4 5 5 1 1 3 1 3 1 1 2 2 1 2 2 3 1 1 0 0 2 2 3 4 3 5 4 3 5 4 4 4 1 2 2 3 4 4 5 5 4 4 5 6 8 8 8 8 9 8 8
6 5 4 3 3 1 3 3 1 2 2 1 2 1 0 1 1 3 1 0 1 1 1 3 4 4 4 4 2 2 2 3 4 3 3 4 3 2 3 3 3 3 3 5 5 6 6 7 9 8 8 9 9 9
6 6 5 4 3 5 4 3 4 3 1 0 3 1 2 2 1 0 2 2 3 2 3 3 2 1 2 1 2 2 2 3 4 4 4 4 4 4 2 2 3 3 5 6 6 7 7 7 8 9 10 10 11 12
4 4 3 3 2 3 3 2 2 4 2 1 2 0 2 2 1 3 2 3 2 3 3 3 2 2 2 2 3 3 3 2 3 2 3 5 5 5 6 5 5 4 5 5 8 9 9 8 9 11 10 11 12 12
2 3 1 0 0 2 3 2 1 3 2 4 2 2 3 1 4 3 1 1 2 1 1 2 2 2 3 3 2 2 2 2 2 1 0 2 2 2 4 5 6 3 8 8 8 10 11 10 10 10 9 9 10 10
3 2 4 3 2 1 4 1 2 3 2 1 3 2 5 6 3 1 1 0 2 4 3 3 2 2 3 3 4 4 4 4 5 4 4 4 3 1 1 1 1 7 7 8 8 8 9 10 10 10 11 10 9 9
1 2 3 3 2 3 1 2 1 2 1 2 3 2 3 1 1 2 1 2 4 3 3 4 3 4 5 4 3 3 4 3 3 3 2 1 1 1 1 1 2 3 5 7 9 9 11 10 10 10 10 8 8 8
3 1 4 2 3 3 3 1 0 1 1 1 1 1 0 1 1 0 2 3 4 3 2 3 4 3 4 4 4 2 1 1 1 2 3 3 4 1 3 4 5 5 6 7 7 8 11 10 11 7 8 7 7 7
1 2 3 1 2 4 4 1 1 1 1 2 1 2 2 2 1 2 2 3 3 4 4 4 3 3 3 3 3 3 3 3 4 4 3 1 2 4 5 5 5 6 6 7 8 9 9 8 8 9 10 10 11 10
2 2 4 1 3 4 1 1 1 1 0 1 2 1 0 1 3 3 2 4 4 5 6 5 5 5 5 3 3 2 3 2 4 4 6 3 3 4 3 4 5 5 7 7 7 8 10 10 9 9 10 12 11 11
1 1 1 2 3 1 1 2 3 3 1 2 3 2 2 2 6 3 1 0 3 3 4 3 2 2 3 4 5 4 4 2 4 6 5 5 5 5 5 4 5 6 7 7 7 8 10 11 9 10 10 11 11 11
Wind_Direction
281 257 228 227 251 267 267 256 169 140 141 149 161 165 172 170 161 131 138 152 129 155 268 239 230 147 144 155 171 158 119 157 163 196 202 185 222 208 253 257 201 210 179 203 175 208 247 151 122 194 137 51 153 147
256 255 261 263 262 268 266 268 202 247 239 218 191 183 179 175 170 143 120 135 108 156 254 268 258 254 229 182 186 169 257 154 189 191 205 181 192 181 194 237 203 211 198 180 195 207 347 2 33 56 154 150 156 147
258 258 261 262 265 267 263 267 243 264 243 223 216 196 188 182 186 153 115 119 113 199 268 212 225 219 191 200 176 156 198 193 177 218 179 215 241 171 192 214 210 227 197 157 148 178 215 229 151 139 177 136 147 147
260 260 262 263 260 255 255 264 252 278 232 219 213 207 185 182 187 163 144 157 121 146 235 263 108 198 199 183 187 204 165 77 109 149 227 212 231 207 199 157 206 204 156 161 273 242 203 242 210 163 122 127 127 140
261 262 262 261 258 256 247 253 265 163 283 235 200 193 192 186 183 162 124 194 179 166 221 260 305 223 168 177 193 201 215 227 176 182 206 213 221 184 134 89 232 195 173 186 213 189 194 188 164 151 142 141 141 137
268 269 264 258 256 249 243 236 234 180 249 233 183 187 188 186 176 108 182 231 204 98 236 259 160 198 194 212 204 204 208 191 175 195 204 197 253 171 166 199 205 79 143 13 201 115 70 120 130 143 136 140 140 139
275 271 267 263 255 244 235 233 234 197 227 242 183 185 182 180 160 167 189 218 173 127 228 260 231 181 271 171 154 145 143 135 171 163 233 198 173 139 139 215 140 45 93 112 114 107 95 148 151 138 132 134 129 127
284 271 264 255 242 227 220 217 218 201 206 192 165 168 169 168 151 235 255 213 151 127 200 245 262 275 201 150 131 159 131 144 190 233 200 123 125 113 224 138 118 120 125 126 0 342 151 131 130 131 130 133 133 134
288 265 247 215 216 204 194 197 192 187 186 136 139 137 134 120 155 216 146 155 72 188 182 182 284 314 321 44 58 65 120 157 176 167 112 190 145 215 128 168 163 163 165 129 95 109 128 138 140 143 144 146 142 147
46 66 75 106 120 138 154 168 171 174 141 110 79 102 129 173 123 109 99 168 204 198 174 213 136 165 156 188 152 174 183 112 125 51 77 160 199 15 336 163 159 166 136 134 115 129 142 150 156 158 159 156 153 154
52 65 83 94 110 120 127 136 143 125 117 88 143 98 93 84 83 189 141 162 176 216 169 172 195 134 299 106 116 11 128 104 137 152 219 189 208 125 111 126 135 145 153 114 204 179 174 162 159 158 154 153 153 153
67 59 70 79 91 104 115 118 118 96 174 177 106 92 87 93 202 119 155 189 208 182 149 138 146 134 102 109 99 21 103 97 131 351 126 230 127 126 141 143 122 140 148 92 102 133 139 148 152 149 147 146 145 135
77 74 76 73 69 77 84 82 109 131 123 159 105 99 209 302 65 128 174 249 110 171 173 161 82 40 109 43 67 72 75 119 146 55 219 249 125 147 141 132 117 121 117 111 109 117 127 133 138 141 134 129 128 130
64 61 76 97 93 93 105 116 169 188 118 70 71 68 64 15 86 159 64 108 76 280 143 116 78 63 21 58 1 87 50 199 78 203 226 238 157 153 144 133 130 137 125 126 123 123 126 126 121 123 129 134 132 135
56 47 40 51 127 115 50 41 38 51 62 60 48 51 39 331 226 155 105 107 38 129 159 90 69 74 35 86 31 113 83 183 221 219 224 144 150 151 147 137 135 138 137 134 131 128 127 127 128 124 133 138 133 133
27 48 10 8 51 12 11 15 29 59 54 54 41 59 336 321 51 56 50 75 351 109 97 55 96 63 51 112 97 152 138 208 218 215 274 121 146 146 127 122 146 140 137 129 126 135 134 132 137 134 128 136 143 145
52 37 337 328 290 59 48 61 44 48 62 48 37 78 57 23 45 44 338 329 331 70 78 95 69 80 116 84 87 165 161 169 125 113 60 100 142 134 122 127 131 124 126 135 131 131 120 118 125 133 141 147 145 147
29 310 330 357 25 57 41 39 80 71 68 26 64 341 355 26 347 358 343 323 325 91 88 96 116 66 92 122 159 142 113 92 64 72 65 63 96 120 133 128 131 134 133 128 125 126 134 143 151 156 145 147 132 135
349 3 5 14 75 87 53 23 41 84 55 11 2 349 12 340 318 293 301 339 50 81 104 60 82 93 114 49 80 114 140 142 139 100 68 56 88 109 115 120 129 132 140 149 153 157 161 165 155 152 150 151 150 151
2 17 6 19 42 72 67 23 41 81 89 270 37 21 348 23 311 341 3 22 39 46 52 55 98 66 103 115 323 111 120 128 127 122 93 71 94 117 128 140 142 137 134 135 134 140 137 130 142 150 157 156 151 154
21 342 356 22 38 57 79 22 56 62 122 90 292 54 19 358 21 14 4 345 58 51 101 74 103 95 98 117 91 106 123 129 140 146 147 139 141 133 134 131 138 145 148 155 156 153 157 160 153 152 149 149 143 141
323 350 42 19 65 50 73 7 102 123 67 16 40 47 42 29 357 348 312 55 72 92 137 167 135 139 128 98 91 88 97 94 91 92 82 121 145 155 160 160 157 162 163 168 168 165 158 149 146 145 141 135 135 136
358 27 40 27 65 45 290 4 72 52 92 289 47 52 16 354 264 322 63 102 133 238 151 127 120 115 117 92 97 102 125 129 116 119 132 131 139 148 152 166 165 162 164 171 160 155 152 146 140 138 137 139 136 132
24 46 48 49 56 224 352 14 25 89 48 103 109 138 25 261 342 47 134 132 203 207 158 126 122 111 109 114 122 137 126 122 118 121 140 143 147 178 180 173 174 186 175 151 155 148 147 147 140 146 148 145 145 145
65 330 75 347 334 58 46 16 353 49 127 181 87 264 184 76 62 10 215 170 158 136 138 128 124 144 128 118 135 152 191 159 159 162 172 161 133 122 148 170 178 184 157 147 157 154 151 148 151 153 155 154 153 156
80 289 94 192 278 113 183 124 201 197 134 95 213 335 58 86 97 239 215 183 171 142 169 168 162 170 135 124 152 178 180 172 146 159 186 183 178 167 173 175 185 205 197 171 152 158 155 156 155 156 156 157 154 151
91 275 290 214 140 99 41 6 76 107 155 178 201 112 78 149 243 246 155 148 121 103 86 108 144 173 156 146 108 84 81 101 108 122 287 185 169 181 167 180 202 212 162 165 162 162 161 161 161 163 158 160 164 163
179 139 151 259 53 18 135 81 149 200 223 204 104 171 178 198 233 196 122 90 119 87 74 59 49 98 117 121 126 127 100 99 96 95 90 76 58 70 109 150 192 149 154 161 160 158 162 164 164 163 165 166 164 168
40 319 90 22 14 39 109 147 232 225 47 130 164 228 231 213 123 148 183 146 118 129 114 107 79 93 92 93 95 107 129 140 116 128 177 196 300 217 78 131 127 151 147 150 160 159 165 164 165 165 164 160 155 152
300 90 91 66 119 231 222 278 222 245 246 249 259 259 206 204 186 216 147 144 145 162 157 144 147 148 146 143 136 133 131 131 157 160 176 202 218 170 167 154 150 150 146 145 143 139 133 123 120 116 123 131 139 140
126 70 68 93 225 243 231 249 260 226 233 247 230 227 251 175 240 218 204 182 161 148 159 170 181 172 162 165 176 184 210 203 198 190 170 147 154 169 174 159 160 149 144 140 140 143 142 144 146 147 150 153 157 155
14 138 128 307 284 277 177 222 260 261 256 337 253 284 250 155 238 198 193 170 176 189 196 187 190 205 201 188 183 184 155 156 185 189 189 186 178 169 148 135 132 132 133 135 139 145 150 148 152 157 158 158 159 159
15 58 72 48 359 257 222 94 19 317 292 262 263 222 254 218 237 240 314 290 230 215 190 178 158 149 174 186 191 183 169 142 146 168 174 171 162 152 138 135 133 131 131 133 139 145 147 146 145 147 146 148 148 148